TimeIST,TemperatureF,Dew PointF,Humidity,Sea Level PressureIn,VisibilityMPH,Wind Direction,Wind SpeedMPH,Gust SpeedMPH,PrecipitationIn,Events,Conditions,WindDirDegrees,DateUTC
12:00 AM,77.0,55.4,47,29.74,1.6,Calm,Calm,-,N/A,,Haze,0,2012-10-03 18:30:00
2:00 AM,73.4,55.4,53,29.74,1.6,West,4.6,-,N/A,,Haze,270,2012-10-03 20:30:00
2:30 AM,76,52,32,29.67,1,Calm,Calm,,,,Haze,,2012-10-03 21:00:00
2:30 AM,75.2,57.2,53,29.74,1.6,Calm,Calm,-,N/A,,Haze,0,2012-10-03 21:00:00
3:00 AM,73.4,57.2,57,29.71,1.6,Calm,Calm,-,N/A,,Haze,0,2012-10-03 21:30:00
4:00 AM,75.2,57.2,53,29.71,1.6,Calm,Calm,-,N/A,,Haze,0,2012-10-03 22:30:00
5:00 AM,71.6,57.2,60,29.71,1.6,Calm,Calm,-,N/A,,Haze,0,2012-10-03 23:30:00
6:00 AM,69.8,57.2,64,29.71,1.6,Calm,Calm,-,N/A,,Haze,0,2012-10-04 00:30:00
6:30 AM,71.6,57.2,60,29.74,1.6,Calm,Calm,-,N/A,,Haze,0,2012-10-04 01:00:00
7:00 AM,69.8,57.2,64,29.74,1.6,Calm,Calm,-,N/A,,Haze,0,2012-10-04 01:30:00
8:00 AM,78.8,57.2,47,29.74,1.6,Calm,Calm,-,N/A,,Haze,0,2012-10-04 02:30:00
8:30 AM,84,56,28,29.69,1,Calm,Calm,,,,Haze,,2012-10-04 03:00:00
10:00 AM,89.6,57.2,33,29.77,2.5,Variable,1.2,-,N/A,,Haze,0,2012-10-04 04:30:00
10:30 AM,91.4,57.2,31,29.77,2.5,SW,4.6,-,N/A,,Haze,220,2012-10-04 05:00:00
11:00 AM,91.4,57.2,31,29.77,2.5,SW,5.8,-,N/A,,Haze,220,2012-10-04 05:30:00
11:30 AM,95,53,16,29.62,2,SW,5.8,,,,Haze,230,2012-10-04 06:00:00
12:00 PM,95.0,53.6,25,29.77,2.5,Variable,2.3,-,N/A,,Haze,0,2012-10-04 06:30:00
1:00 PM,96.8,53.6,23,29.74,2.5,NW,6.9,-,N/A,,Haze,320,2012-10-04 07:30:00
2:00 PM,96.8,53.6,23,29.71,2.5,Variable,4.6,-,N/A,,Haze,0,2012-10-04 08:30:00
2:30 PM,98,54,14,29.61,2,West,6.9,,,,Haze,270,2012-10-04 09:00:00
3:00 PM,96.8,53.6,23,29.71,2.5,Variable,8.1,-,N/A,,Haze,0,2012-10-04 09:30:00
4:00 PM,96.8,53.6,23,29.68,2.5,Variable,2.3,-,N/A,,Haze,0,2012-10-04 10:30:00
5:00 PM,95.0,53.6,25,29.71,2.5,WNW,5.8,-,N/A,,Haze,290,2012-10-04 11:30:00
5:30 PM,94,53,16,29.63,2,SW,2.3,,,,Haze,230,2012-10-04 12:00:00
6:00 PM,91.4,53.6,28,29.71,2.5,Variable,3.5,-,N/A,,Haze,0,2012-10-04 12:30:00
7:00 PM,89.6,53.6,29,29.74,2.5,Variable,1.2,-,N/A,,Haze,0,2012-10-04 13:30:00
8:00 PM,86.0,53.6,33,29.74,1.9,Variable,2.3,-,N/A,,Haze,0,2012-10-04 14:30:00
8:30 PM,82.4,53.6,37,29.74,1.9,Calm,Calm,-,N/A,,Haze,0,2012-10-04 15:00:00
9:00 PM,82.4,53.6,37,29.77,1.9,Calm,Calm,-,N/A,,Haze,0,2012-10-04 15:30:00
10:00 PM,80.6,53.6,39,29.77,1.9,Calm,Calm,-,N/A,,Haze,0,2012-10-04 16:30:00
11:00 PM,80.6,55.4,42,29.77,1.6,Calm,Calm,-,N/A,,Haze,0,2012-10-04 17:30:00